Home > Weather > Mason > Past weeks

Flag for USA Past Weather in Mason, Ohio, USA — Yesterday and Last 2 Weeks

Now
82 °F

Scattered clouds.


Feels Like: 86 °F
Forecast: 71 / 78 °F
Wind: 3 mph from Northwest

Location: Butler County Regional Airport

Current Time: Jul 28, 2016 at 2:21:06 PM

Latest Report: Jul 28, 2016 at 1:53 PM


Visibility: 10 mi

Pressure: 29.88 "Hg

Humidity: 70%

Dew Point: 71 °F

Location of MasonLocation

Past Weather in Mason — Graph

°F

Mason Temperature Yesterday

Maximum temperature yesterday: 90 °F (at 1:53 PM)
Minimum temperature yesterday: 71 °F (at 1:53 AM)
Average temperature yesterday: 80 °F

High & Low Weather Summary for the Past Weeks

 TemperatureHumidityPressure
High94 °F (Jul 24, 1:53 PM)97% (Jul 15, 3:53 AM)30.27 "Hg (Jul 15, 3:53 AM)
Low59 °F (Jul 17, 5:53 AM)41% (Jul 20, 1:53 PM)29.88 "Hg (Jul 28, 4:53 AM)
Average79 °F74%30.05 "Hg
* Reported Jul 13 12:53 PM — Jul 28 12:53 PM, Mason, Weather by CustomWeather, © 2016

Note: Actual official high and low records may vary slightly from our data, if they occured in-between our weather recording intervals... More about our weather records

Advertising

Mason Weather History for the Previous 24 Hours

Scroll right to see more
 ConditionsComfort  
Time TempWeatherWind HumidityBarometerVisibility
12:53 PM
Thu, Jul 28
80 °FPartly sunny.No wind74%29.89 "Hg10 mi
11:53 AM77 °FMostly cloudy.5 mph82%29.91 "Hg10 mi
10:53 AM75 °FMostly cloudy.3 mph90%29.91 "Hg10 mi
10:02 AM74 °FBroken clouds.3 mph94%29.93 "Hg8 mi
9:53 AM74 °FCloudy.3 mph94%29.91 "Hg7 mi
8:53 AM73 °FLight rain. Mostly cloudy.No wind94%29.90 "Hg8 mi
7:53 AM73 °FRain. Fog.No wind94%29.92 "Hg2 mi
7:02 AM72 °FRain. Fog.No wind93%29.94 "Hg3 mi
6:53 AM72 °FThundershowers. Fog.No wind93%29.92 "Hg4 mi
5:53 AM76 °FThunderstorms. Mostly cloudy.5 mph82%29.90 "Hg10 mi
4:53 AM73 °FPassing clouds.No wind90%29.88 "Hg10 mi
3:53 AM74 °FPassing clouds.No wind88%29.89 "Hg10 mi
2:53 AM74 °FPartly cloudy.No wind88%29.91 "Hg10 mi
1:53 AM75 °FPassing clouds.No wind88%29.93 "Hg10 mi
12:53 AM76 °FPassing clouds.No wind85%29.93 "Hg10 mi
11:53 PM
Wed, Jul 27
77 °FPassing clouds.No wind82%29.94 "Hg10 mi
10:53 PM80 °FClear.3 mph74%29.94 "Hg10 mi
9:53 PM77 °FSunny.No wind82%29.93 "Hg10 mi
8:53 PM81 °FSunny.5 mph72%29.90 "Hg10 mi
7:53 PM86 °FPassing clouds.5 mph57%29.91 "Hg10 mi
6:53 PM88 °FSunny.6 mph52%29.92 "Hg10 mi
5:53 PM90 °FPassing clouds.6 mph50%29.92 "Hg10 mi
4:53 PM88 °FSunny.N/A50%29.94 "Hg10 mi
3:53 PM89 °FPartly sunny.7 mph48%29.96 "Hg10 mi
2:53 PM88 °FBroken clouds.No wind50%29.98 "Hg10 mi
Weather by CustomWeather, © 2016

See weather overviewHow to use our weather pages